This demonstration page uses our WeatherBlox Daily Observations layout. Learn more.

Hourly Observations for December 17, 2016

Temp ( °F °C ) Dew Point ( °F °C ) Humidity (%) Winds ( mph kmh ) Pressure ( in mb ) Visibility ( mi km ) Precip ( " mm )
12:15 am 00:15 Cloudy 30 -1 7 -14 37 37 undefined N/A 30.3 1026 10 16.09344 0 0
12:35 am 00:35 Cloudy 30 -1 7 -14 37 37 undefined N/A 30.27 1025 10 16.09344 0 0
12:55 am 00:55 Cloudy 30 -1 7 -14 37 37 undefined N/A 30.27 1025 10 16.09344 0 0
1:15 am 01:15 Cloudy 30 -1 7 -14 37 37 undefined N/A 30.27 1025 10 16.09344 0 0
1:35 am 01:35 Cloudy 30 -1 7 -14 37 37 undefined N/A 30.24 1024 10 16.09344 0 0
1:55 am 01:55 Cloudy 30 -1 9 -13 40 40 undefined N/A 30.24 1024 10 16.09344 0 0
2:15 am 02:15 Cloudy 30 -1 9 -13 40 40 undefined N/A 30.24 1024 10 16.09344 0 0
2:35 am 02:35 Cloudy 30 -1 9 -13 40 40 undefined N/A 30.21 1023 10 16.09344 0 0
2:55 am 02:55 Cloudy 30 -1 9 -13 40 40 undefined N/A 30.21 1023 10 16.09344 0 0
3:15 am 03:15 Cloudy 30 -1 9 -13 40 40 undefined N/A 30.18 1022 10 16.09344 0 0
3:35 am 03:35 Cloudy 30 -1 9 -13 40 40 undefined N/A 30.15 1021 10 16.09344 0 0
3:55 am 03:55 Cloudy 30 -1 9 -13 40 40 undefined N/A 30.12 1020 10 16.09344 0 0
4:15 am 04:15 Cloudy with Light Wintry Mix 30 -1 12 -11 47 47 undefined N/A 30.12 1020 10 16.09344 0 0
4:35 am 04:35 Cloudy with Light Wintry Mix 30 -1 18 -8 59 59 undefined N/A 30.15 1021 10 16.09344 0 0
4:55 am 04:55 Cloudy with Light Wintry Mix 30 -1 21 -6 69 69 undefined N/A 30.12 1020 7 11.265408 0 0
5:15 am 05:15 Cloudy with Light Snow 30 -1 23 -5 75 75 undefined N/A 30.09 1019 5 8.04672 0 0
5:35 am 05:35 Cloudy with Light Wintry Mix 30 -1 27 -3 86 86 undefined N/A 30.06 1018 7 11.265408 0 0
5:55 am 05:55 Cloudy with Light Snow 28 -2 27 -3 93 93 undefined N/A 30.06 1018 7 11.265408 0 0
6:15 am 06:15 Cloudy with Light Wintry Mix 28 -2 27 -3 93 93 undefined N/A 30.06 1018 10 16.09344 0 0
6:35 am 06:35 Cloudy with Light Snow 30 -1 28 -2 93 93 undefined N/A 30.03 1017 3 4.828032 0 0
6:55 am 06:55 Cloudy with Light Wintry Mix 30 -1 28 -2 93 93 undefined N/A 30.06 1018 10 16.09344 0 0
7:15 am 07:15 Cloudy with Light Snow 30 -1 30 -1 100 100 undefined N/A 30.03 1017 3 4.828032 0 0
7:35 am 07:35 Cloudy with Light Wintry Mix 30 -1 30 -1 100 100 undefined N/A 30.03 1017 3 4.828032 0 0
7:55 am 07:55 Cloudy with Light Wintry Mix 30 -1 30 -1 100 100 undefined N/A 30.03 1017 4 6.437376 0 0
8:15 am 08:15 Cloudy with Light Wintry Mix 32 0 32 0 100 100 undefined N/A 30.03 1017 5 8.04672 0 0
8:35 am 08:35 Cloudy 32 0 32 0 100 100 undefined N/A 30.03 1017 10 16.09344 0 0
8:55 am 08:55 Cloudy 30 -1 30 -1 100 100 undefined N/A 30 1016 10 16.09344 0 0
9:15 am 09:15 Cloudy with Light Wintry Mix 32 0 32 0 100 100 undefined N/A 30 1016 7 11.265408 0 0
9:35 am 09:35 Cloudy with Light Wintry Mix 32 0 32 0 100 100 undefined N/A 30 1016 10 16.09344 0 0
9:55 am 09:55 Cloudy with Light Wintry Mix 32 0 32 0 100 100 undefined N/A 30 1016 4 6.437376 0 0
10:15 am 10:15 Cloudy with Light Wintry Mix 32 0 32 0 100 100 undefined N/A 30 1016 7 11.265408 0 0
10:35 am 10:35 Cloudy 32 0 32 0 100 100 undefined N/A 30 1016 10 16.09344 0 0
10:55 am 10:55 Cloudy 32 0 32 0 100 100 undefined N/A 30 1016 10 16.09344 0 0
11:15 am 11:15 Cloudy 32 0 32 0 100 100 undefined N/A 29.97 1015 10 16.09344 0 0
11:35 am 11:35 Cloudy 32 0 32 0 100 100 undefined N/A 29.97 1015 10 16.09344 0 0
11:55 am 11:55 Cloudy 32 0 32 0 100 100 undefined N/A 29.97 1015 10 16.09344 0 0
12:15 pm 12:15 Cloudy 32 0 32 0 100 100 undefined N/A 29.97 1015 10 16.09344 0.01 0.254
12:35 pm 12:35 Cloudy 32 0 32 0 100 100 undefined N/A 29.94 1014 7 11.265408 0.05 1.27
12:55 pm 12:55 Mostly Cloudy 34 1 34 1 100 100 undefined N/A 29.94 1014 7 11.265408 0.09 2.286
1:15 pm 13:15 Cloudy 34 1 34 1 100 100 undefined N/A 29.91 1013 7 11.265408 0.02 0.508
1:35 pm 13:35 Cloudy 34 1 34 1 100 100 undefined N/A 29.91 1013 7 11.265408 0.04 1.016
1:55 pm 13:55 Mostly Cloudy 36 2 36 2 100 100 undefined N/A 29.91 1013 10 16.09344 0.04 1.016
2:15 pm 14:15 Partly Cloudy 37 3 36 2 93 93 undefined N/A 29.91 1013 7 11.265408 0.02 0.508
2:35 pm 14:35 Sunny 37 3 37 3 100 100 undefined N/A 29.91 1013 10 16.09344 0.07 1.778
2:55 pm 14:55 Sunny 41 5 39 4 93 93 undefined N/A 29.91 1013 10 16.09344 0.09 2.286
3:15 pm 15:15 Sunny 41 5 41 5 100 100 undefined N/A 29.91 1013 10 16.09344 0.01 0.254
3:35 pm 15:35 Sunny 41 5 41 5 100 100 undefined N/A 29.91 1013 10 16.09344 0.01 0.254
3:55 pm 15:55 Sunny 41 5 41 5 100 100 undefined N/A 29.91 1013 10 16.09344 0.01 0.254
4:15 pm 16:15 Sunny 41 5 41 5 100 100 undefined N/A 29.91 1013 10 16.09344 0 0
4:35 pm 16:35 Sunny 41 5 39 4 93 93 undefined N/A 29.91 1013 7 11.265408 0 0
4:55 pm 16:55 Clear with Mist and Fog 37 3 37 3 100 100 undefined N/A 29.91 1013 5 8.04672 0 0
5:15 pm 17:15 Clear 37 3 37 3 100 100 undefined N/A 29.91 1013 7 11.265408 0 0
5:35 pm 17:35 Clear with Mist and Fog 36 2 36 2 100 100 undefined N/A 29.94 1014 5 8.04672 0 0
5:55 pm 17:55 Clear with Mist and Fog 36 2 36 2 100 100 undefined N/A 29.94 1014 5 8.04672 0 0
6:15 pm 18:15 Clear with Mist and Fog 36 2 36 2 100 100 undefined N/A 29.94 1014 5 8.04672 0 0
6:35 pm 18:35 Clear with Mist and Fog 36 2 36 2 100 100 undefined N/A 29.94 1014 5 8.04672 0 0
6:55 pm 18:55 Clear with Mist and Fog 36 2 36 2 100 100 undefined N/A 29.94 1014 5 8.04672 0 0
7:15 pm 19:15 Clear with Mist and Fog 34 1 34 1 100 100 undefined N/A 29.94 1014 5 8.04672 0 0
7:35 pm 19:35 Clear with Mist and Fog 34 1 34 1 100 100 undefined N/A 29.94 1014 5 8.04672 0 0
7:55 pm 19:55 Clear with Mist and Fog 34 1 34 1 100 100 undefined N/A 29.94 1014 5 8.04672 0 0
8:15 pm 20:15 Clear with Mist and Fog 34 1 34 1 100 100 undefined N/A 29.94 1014 5 8.04672 0 0
8:35 pm 20:35 Clear with Mist and Fog 34 1 34 1 100 100 undefined N/A 29.91 1013 4 6.437376 0 0
8:55 pm 20:55 Clear with Mist and Fog 32 0 32 0 100 100 undefined N/A 29.91 1013 2.5 4.02336 0 0
9:15 pm 21:15 Clear with Mist and Fog 34 1 34 1 100 100 undefined N/A 29.91 1013 3 4.828032 0 0
9:35 pm 21:35 Clear with Mist and Fog 34 1 34 1 100 100 undefined N/A 29.91 1013 3 4.828032 0 0
9:55 pm 21:55 Clear with Mist and Fog 34 1 34 1 100 100 undefined N/A 29.91 1013 4 6.437376 0 0
10:15 pm 22:15 Clear with Mist and Fog 34 1 34 1 100 100 undefined N/A 29.91 1013 5 8.04672 0 0
10:35 pm 22:35 Clear with Mist and Fog 34 1 34 1 100 100 undefined N/A 29.91 1013 4 6.437376 0 0
10:55 pm 22:55 Clear with Mist and Fog 36 2 36 2 100 100 undefined N/A 29.91 1013 5 8.04672 0 0
11:15 pm 23:15 Clear with Mist and Fog 36 2 36 2 100 100 undefined N/A 29.88 1012 5 8.04672 0 0
11:35 pm 23:35 Mostly Cloudy with Mist and Fog 43 6 43 6 100 100 undefined N/A 29.88 1012 4 6.437376 0 0
11:55 pm 23:55 Cloudy 46 8 46 8 100 100 undefined N/A 29.88 1012 7 11.265408 0 0

Powered by AerisWeather